This is the latest recevied weather packets stored in our database for station/object K7FRY. If no packets are shown the sender has not sent any weather packets the latest 10 day(s).
| Time | Temp. | Humidity | Pressure | Rain* | Wind** | Luminosity | Snow |
|---|---|---|---|---|---|---|---|
| 1778026536 | 21.67° C | 40% | 1011.1 hPa | 0 mm | - | 55 W/m² | - |
| 1778026234 | 22.78° C | 38% | 1011 hPa | 0 mm | - | 50 W/m² | - |
| 1778025931 | 23.33° C | 34% | 1010.9 hPa | 0 mm | - | 277 W/m² | - |
| 1778025628 | 23.33° C | 33% | 1011 hPa | 0 mm | - | 294 W/m² | - |
| 1778025321 | 23.89° C | 33% | 1010.7 hPa | 0 mm | - | 315 W/m² | - |
| 1778025017 | 23.33° C | 33% | 1010.9 hPa | 0 mm | - | 322 W/m² | - |
| 1778024714 | 23.33° C | 34% | 1010.8 hPa | 0 mm | - | 332 W/m² | - |
| 1778024411 | 23.33° C | 34% | 1010.8 hPa | 0 mm | - | 349 W/m² | - |
| 1778024109 | 23.33° C | 35% | 1010.9 hPa | 0 mm | - | 364 W/m² | - |
| 1778023806 | 23.33° C | 35% | 1011.3 hPa | 0 mm | - | 355 W/m² | - |
| 1778023504 | 23.89° C | 35% | 1010.9 hPa | 0 mm | - | 366 W/m² | - |
| 1778023201 | 23.89° C | 35% | 1010.9 hPa | 0 mm | - | 409 W/m² | - |
| 1778022898 | 23.33° C | 36% | 1010.9 hPa | 0 mm | - | 420 W/m² | - |
| 1778022596 | 23.33° C | 36% | 1010.9 hPa | 0 mm | - | 432 W/m² | - |
| 1778022293 | 23.33° C | 36% | 1011 hPa | 0 mm | - | 450 W/m² | - |
| 1778021989 | 23.33° C | 36% | 1011 hPa | 0 mm | - | 469 W/m² | - |
| 1778021687 | 23.33° C | 36% | 1010.9 hPa | 0 mm | - | 502 W/m² | - |
| 1778021383 | 23.89° C | 37% | 1011 hPa | 0 mm | - | 526 W/m² | - |
| 1778021080 | 23.33° C | 37% | 1011 hPa | 0 mm | - | 534 W/m² | - |
| 1778020777 | 23.33° C | 37% | 1011.1 hPa | 0 mm | - | 553 W/m² | - |
| 1778020474 | 23.33° C | 38% | 1011 hPa | 0 mm | - | 562 W/m² | - |
| 1778020170 | 23.89° C | 38% | 1011.2 hPa | 0 mm | - | 577 W/m² | - |
| 1778019867 | 23.33° C | 39% | 1011.2 hPa | 0 mm | - | 580 W/m² | - |
| 1778019562 | 23.33° C | 39% | 1011 hPa | 0 mm | - | 600 W/m² | - |
| 1778019260 | 23.89° C | 40% | 1011.3 hPa | 0 mm | - | 620 W/m² | - |
* Rain latest hour (hover to see other rain measurements)
** Current wind speed in m/s (hover to see current wind gust speed)